www.pogodaiklimat.ru

Погода и климат >> Архив погоды >> Кувейт >> Sulaibiya


ПОГОДА в Sulaibiya

  • Прогноз погоды в Sulaibiya
  • Монитор погоды в Sulaibiya
  • Климат города

АРХИВ ПОГОДЫ в Sulaibiya

Время (UTC), дата Ветер
(напр.,м/с)
 
Видим.   Явления Облачность Т
(С)
Тd
(С)
f
(%)
Тe
(С)
Тes
(С)
Комфортность P
(гПа)
Po
(гПа)
Тmin
(С)
Tmax
(С)
R
(мм)
R24
(мм)
S
(см)
00 16.10 СЗ 3 н/о н/о +24.4 +10.5 42 +26 +26 жарко 1010.1 1010.0
03 16.10 З 3 н/о н/о +23.1 +6.1 33 +24 +24 комфорт 1011.7 1012.0
06 16.10 З 1 н/о н/о +33.1 +2.3 14 +30 +30 жарко 1012.2 1012.0
09 16.10 В 2 н/о н/о +37.8 +2.6 11 +34 +34 очень
жарко
1010.5 1011.0
12 16.10 СВ 4 н/о н/о +36.0 +5.4 15 +33 +33 жарко 1008.8 1009.0
15 16.10 В 2 н/о н/о +31.2 +10.4 28 +31 +31 жарко 1008.7 1009.0
18 16.10 Ю 2 н/о н/о +28.0 +10.7 34 +29 +29 жарко 1010.0 1010.0
21 16.10 СЗ 3 н/о н/о +25.7 +8.5 34 +26 +26 жарко 1009.8 1010.0 +22.5 +39.7
00 17.10 С 1 н/о н/о +23.9 +7.1 34 +24 +24 комфорт 1009.9 1010.0
03 17.10 С 3 н/о н/о +24.2 +4.2 27 +24 +24 комфорт 1011.0 1011.0
06 17.10 СВ 4 н/о н/о +29.6 +4.3 20 +28 +28 жарко 1012.3 1012.0
09 17.10 СВ 8 н/о н/о +34.2 +1.6 13 +31 +31 жарко 1011.1 1011.0
12 17.10 СВ 6 н/о н/о +35.0 +2.4 13 +32 +32 жарко 1009.1 1009.0
15 17.10 СВ 2 н/о н/о +30.9 +5.9 21 +29 +29 жарко 1009.7 1010.0
18 17.10 С 4 н/о н/о +28.6 +1.5 17 +26 +26 жарко 1010.8 1011.0
21 17.10 С 5 н/о н/о +28.4 -1.1 15 +26 +26 жарко 1010.9 1011.0 +22.9 +35.5
00 18.10 С 6 н/о н/о +26.7 -0.6 17 +25 +25 комфорт 1012.1 1012.0
03 18.10 С 2 н/о н/о +24.1 +2.8 25 +23 +23 комфорт 1012.9 1013.0
06 18.10 С 3 н/о н/о +28.6 +2.2 18 +26 +26 жарко 1014.4 1014.0
09 18.10 С 4 н/о н/о +34.0 -0.5 11 +30 +30 жарко 1012.8 1013.0
12 18.10 СВ 4 н/о н/о +35.4 -0.2 10 +32 +32 жарко 1011.9 1012.0
15 18.10 СВ 1 н/о н/о +30.4 +2.2 16 +28 +28 жарко 1012.5 1013.0
18 18.10 З 1 н/о н/о +26.2 -0.6 17 +24 +24 комфорт 1014.2 1014.0
21 18.10 С 3 н/о н/о +27.4 +1.4 19 +26 +26 жарко 1014.2 1014.0 +24.1 +35.9
00 19.10 С 4 н/о н/о +25.1 -0.5 18 +23 +23 комфорт 1014.6 1015.0
03 19.10 СЗ 1 н/о н/о +21.5 -0.5 23 +21 +21 комфорт 1015.9 1016.0
06 19.10 С 5 н/о н/о +28.6 -1.8 14 +26 +26 жарко 1016.7 1017.0
09 19.10 С 5 н/о н/о +35.2 -2.0 9 +31 +31 жарко 1015.4 1015.0
12 19.10 СВ 3 н/о н/о +35.8 -0.3 10 +32 +32 жарко 1014.1 1014.0
15 19.10 СВ 1 н/о н/о +30.6 +0.1 14 +28 +28 жарко 1014.4 1014.0
18 19.10 З 2 н/о н/о +25.7 -1.4 17 +24 +24 комфорт 1015.8 1016.0
21 19.10 З 3 н/о н/о +23.4 -0.7 20 +22 +22 комфорт 1014.9 1015.0 +21.3 +36.6
00 20.10 З 2 н/о н/о +21.0 -0.8 23 +22 +22 комфорт 1014.1 1014.0
03 20.10 ЮЗ 2 н/о н/о +20.0 -0.3 26 +21 +21 комфорт 1014.9 1015.0
06 20.10 СЗ 2 н/о н/о +28.2 -3.4 12 +25 +25 комфорт 1016.1 1016.0
09 20.10 С 4 н/о н/о +34.2 -2.6 9 +30 +30 жарко 1014.4 1014.0
12 20.10 С 3 н/о н/о +35.8 -1.3 9 +32 +32 жарко 1012.6 1013.0
15 20.10 ЮВ 2 н/о н/о +30.0 +0.1 14 +27 +27 жарко 1012.7 1013.0
18 20.10 ЮЗ 1 н/о н/о +25.5 -1.5 17 +24 +24 комфорт 1013.5 1014.0
21 20.10 З 2 н/о н/о +22.8 -1.8 19 +22 +22 комфорт 1013.0 1013.0 +19.4 +36.1
00 21.10 З 2 н/о н/о +21.3 -1.3 22 +21 +21 комфорт 1012.9 1013.0
03 21.10 З 2 н/о н/о +19.9 -1.7 23 +20 +20 1013.7 1014.0
06 21.10 С 1 н/о н/о +28.0 -4.1 12 +25 +25 комфорт 1014.4 1014.0
09 21.10 СВ 3 н/о н/о +31.8 -0.7 12 +28 +28 жарко 1012.3 1012.0
12 21.10 СВ 3 н/о н/о +33.6 -1.8 10 +30 +30 жарко 1010.3 1010.0
15 21.10 СВ 2 н/о н/о +29.3 -0.6 14 +26 +26 жарко 1010.4 1010.0
18 21.10 ЮЗ 1 н/о н/о +23.6 -1.7 19 +22 +22 комфорт 1011.0 1011.0
21 21.10 ЮЗ 4 н/о н/о +22.5 -0.6 21 +22 +22 комфорт 1011.1 1011.0 +19.5 +33.8
00 22.10 З 3 н/о н/о +20.1 +0.2 26 +21 +21 комфорт 1011.0 1011.0
03 22.10 ЮЗ 3 н/о н/о +19.0 -2.2 24 +19 +19 1012.0 1012.0
06 22.10 С 3 н/о н/о +28.1 -3.2 13 +25 +25 комфорт 1012.9 1013.0
09 22.10 С 5 н/о н/о +33.2 -2.9 10 +29 +29 жарко 1011.2 1011.0
12 22.10 СВ 3 н/о н/о +33.8 -1.5 10 +30 +30 жарко 1009.6 1010.0
15 22.10 ЮВ 2 н/о н/о +29.1 +0.5 16 +27 +27 жарко 1010.3 1010.0
18 22.10 З 2 н/о н/о +24.0 -1.5 18 +22 +22 комфорт 1011.5 1012.0

 

Местоположение метеостанции Sulaibiya (Кувейт): широта 29.27 долгота 47.72 высота над уровнем моря 55 м.

В архиве по умолчанию представлена погода в Sulaibiya за последнюю неделю. Архивные данные за месяц целиком и за предыдущие месяцы, начиная с января 2011 года, Вы можете получить, выбрав интересующий диапазон дат из раскрывающегося списка и нажав кнопку "Ввод!".

Внимание! Время в таблицах - всемирное. Для получения местного времени необходимо прибавить поправку, которая в Sulaibiya равна 3 ч.

Смотрите также архив погоды в соседних городах и на ближайших метеорологических станциях:

Погода в Jahra (Кувейт) (7 км)
Погода в Experimental Farm (Кувейт) (21 км)
Погода в Kuwait (Кувейт) (25 км)
Погода в Minagish (Кувейт) (29 км)
Погода в Shuwaikh (Кувейт) (33 км)
Погода в Al-Shuaiba (Кувейт) (38 км)
Погода в Sabriyah (Кувейт) (55 км)
Погода в Failaka Island (Кувейт) (59 км)
Погода в Mitribah (Кувейт) (70 км)
Погода в Abraque Al Habari (Кувейт) (70 км)

Пояснения к столбцам:

Ветер - указаны скорость ветра в м/с - средняя за 10 мин, порывы в срок и между сроками (в фигурных скобках) и направление, откуда дует ветер: С - северный, СВ - северо-восточный, В - восточный, ЮВ - юго-восточный, Ю - южный, ЮЗ - юго-западный, З - западный, СЗ - северо-западный.
Видимость - горизонтальная дальность видимости в метрах или километрах. При видимости от 1 до 10 км при отсутствии осадков обычно наблюдается дымка, при ухудшении видимости до 1 км и менее - туман. В сухую погоду видимость может ухудшаться дымом, пылью или мглою.
Явления - указаны атмосферные явления, наблюдавшиеся в срок или в последний час перед сроком; фигурными скобками обозначены явления, наблюдавшиеся между сроками (за 1-3 часа до срока); квадратными скобками обозначены град или гололедные отложения с указанием их диаметра в мм.
Облачность - указаны через наклонную черту общая и нижняя облачность в баллах и высота нижней границы облаков в метрах; квадратными скобками обозначены формы облаков: Ci - перистые, Cs - перисто-слоистые, Cc - перисто-кучевые, Ac - высококучевые, As - высокослоистые, Sc - слоисто-кучевые, Ns - слоисто-дождевые, Cu - кучевые, Cb - кучево-дождевые. Подробнее классификацию облаков см. в Атласе облаков (PDF).
T - Температура воздуха - температура, измеренная на высоте 2 м над землей.
Td - Температура точки росы - температура, при понижении до которой содержащийся в воздухе водяной пар достигнет насыщения.
f - Относительная влажность воздуха - влажноcть воздуха, измеренная на высоте 2 м над землей.
Te - Эффективная температура - температура, которую ощущает одетый по сезону человек в тени. Характеристика душности погоды. При расчете учитывается влияние влажности воздуха и скорости ветра на теплоощущения человека.
Tes - Эффективная температура на солнце - температура, которую ощущает человек, с поправкой на солнечный нагрев. Характеристика знойности погоды. Зависит от высоты солнца над горизонтом, облачности и скорости ветра. Ночью, в пасмурную погоду, а также при ветре 12 м/с и более поправка равна нулю.
P - Атмосферное давление - приведенное к уровню моря атмосферное давление.
Po - Атмосферное давление - измеренное на уровне метеостанции атмосферное давление.
Tmin - Минимальная температура - минимум температуры воздуха на высоте 2 м над землей.
Tmax - Максимальная температура - максимум температуры воздуха на высоте 2 м над землей.
R - Количество осадков - Количество выпавших осадков за период времени, мм. При наведении курсора мыши на число - период времени, за который выпало указанное количество осадков.
R24 - Количество осадков - Количество выпавших осадков за 24 часа, мм.
S - Снежный покров - Высота снежного покрова, см. При наведении курсора мыши на число - состояние снежного покрова и степень покрытия местности в баллах.